[[{"header":{"parameterUnit":"m.s-1","parameterCategory":1,"la1":30.2991,"la2":30.254,"lo1":-89.0895,"lo2":-89.0444,"dy":0.0017,"dx":0.0017,"nx":28,"ny":28,"refTime":"2023-09-29T03:00:00:Z","depth":0,"parameterNumber":2,"parameterNumberName":"U-component_of_WINDS"},"data":[0,0,0,0,0,0,0,0,0,0,0,0,0,0,0,0,0,0,0,0,0,0,0,0,0,0,0,0,0,0,0,0,0,0,0,0,0,0,0,0,0,0,0,0,0,0,0,0,0,0,0,0,0,0,0,0,0,0,-2.8806,-2.8806,0,-2.8805,-2.8805,-2.8805,-2.8719,-2.8717,-2.8714,-2.8712,-2.8715,-2.8717,-2.8719,0,0,0,0,0,0,0,0,0,0,0,0,0,-2.8738,-2.874,-2.8806,-2.8806,-2.8806,-2.8805,-2.8805,-2.8805,-2.8719,-2.8717,-2.8714,-2.8711,-2.8714,-2.8717,-2.8719,0,0,0,0,0,0,0,0,0,0,0,0,0,-2.8756,-2.874,-2.8806,-2.8763,-2.8759,-2.8805,-2.8805,-2.8805,-2.872,-2.8716,-2.8713,-2.871,-2.8713,-2.8717,-2.872,-2.8808,0,0,-2.873,-2.8731,0,0,0,0,0,0,0,0,-2.8755,-2.8758,-2.8769,-2.8766,-2.8761,-2.8758,-2.8782,-2.8806,-2.8721,-2.8735,-2.8712,-2.8708,-2.8732,-2.8734,-2.8741,-2.8808,-2.8808,-2.873,-2.8732,-2.8733,-2.8734,0,0,0,0,0,0,0,-2.8754,-2.8758,-2.8805,-2.8769,-2.8765,-2.8745,-2.8744,-2.8786,-2.8753,-2.8733,-2.8727,-2.8728,-2.873,-2.8738,-2.8741,-2.8808,-2.873,-2.8733,-2.8735,-2.8736,-2.8951,-2.8955,0,0,0,0,0,0,-2.8758,-2.8757,-2.8805,-2.8805,-2.875,-2.8749,-2.8748,-2.8763,-2.8752,-2.8747,-2.8731,-2.8724,-2.8734,-2.8737,-2.8741,-2.8846,-2.8733,-2.8737,-2.8738,-2.8948,-2.8952,-2.8956,0,0,0,0,0,0,-2.8757,-2.8763,-2.8805,-2.878,-2.8783,-2.8754,-2.8772,-2.8765,-2.8773,-2.875,-2.8744,-2.8746,-2.8732,-2.8736,-2.8792,-2.8845,-2.8738,-2.8741,-2.8943,-2.8949,-2.8954,-2.9056,0,0,0,0,0,0,-2.8755,-2.8763,-2.8795,-2.8781,-2.8785,-2.8856,-2.8775,-2.8767,-2.8779,-2.877,-2.8762,-2.8758,-2.873,-2.8788,-2.8796,-2.8847,-2.8744,-2.8938,-2.8946,-2.8952,-2.9048,-2.9065,-2.9079,0,0,0,0,0,-2.8753,-2.8823,-2.8797,-2.8803,-2.8824,-2.8859,-2.8862,-2.8827,-2.8783,-2.8816,-2.8802,-2.8758,-2.8837,-2.8795,-2.8802,-2.8856,-2.8935,-2.8944,-2.8952,-2.9041,-2.9061,-2.9078,0,0,0,0,0,0,-2.8844,-2.882,-2.8791,-2.8858,-2.8862,-2.8844,-2.8885,-2.8849,-2.8865,-2.8856,-2.8813,-2.8812,-2.8876,-2.8871,-2.8824,-2.8943,-2.8879,-2.8889,-2.8944,-2.8963,-2.8978,-2.8979,-2.8746,0,0,0,0,0,-2.8872,-2.8901,-2.8879,-2.8941,-2.8944,-2.8915,-2.8928,-2.8901,-2.8903,-2.8904,-2.8894,-2.8899,-2.8925,-2.8943,-2.8965,-2.9046,-2.9046,-2.9087,-2.9103,-2.9115,-2.9126,-2.9172,-2.9192,-2.8984,-2.8984,-2.8984,0,0,-2.893,-2.8921,-2.8942,-2.8959,-2.8958,-2.8992,-2.8916,-2.8954,-2.8979,-2.891,-2.8964,-2.8957,-2.8959,-2.9029,-2.906,-2.9027,-2.9183,-2.9126,-2.9136,-2.914,-2.9183,-2.9203,-2.922,-2.899,-2.8989,-2.8988,0,0,-2.9054,-2.9048,-2.9101,-2.9102,-2.9102,-2.9082,-2.9095,-2.9084,-2.9077,-2.9129,-2.908,-2.911,-2.9155,-2.916,-2.9168,-2.9297,-2.926,-2.9306,-2.9387,-2.9433,-2.9449,-2.9464,-2.9514,-2.9532,-2.9316,-2.9316,-2.9316,0,-2.9127,-2.9174,-2.9133,-2.9175,-2.9186,-2.9125,-2.918,-2.9183,-2.9191,-2.9201,-2.9163,-2.9221,-2.9218,-2.9291,-2.9323,-2.933,-2.9346,-2.9307,-2.945,-2.9464,-2.9477,-2.9524,-2.9543,-2.9322,-2.9321,-2.9321,-2.932,0,-2.9266,-2.9299,-2.9342,-2.9351,-2.9366,-2.9415,-2.9384,-2.9404,-2.9376,-2.9361,-2.9418,-2.9413,-2.9435,-2.9449,-2.9422,-2.952,-2.95,-2.9457,-2.9393,-2.9503,-2.9547,-2.9565,-2.933,-2.9328,-2.9326,-2.9325,0,0,-2.9447,-2.9434,-2.9451,-2.9456,-2.9453,-2.9479,-2.9526,-2.9547,-2.9567,-2.9575,-2.9616,-2.9656,-2.9618,-2.9627,-2.96,-2.964,-2.9748,-2.9593,-2.9592,-2.9625,-2.986,-2.9895,-2.9916,-2.9722,-2.9725,-2.9727,-2.9861,0,-2.957,-2.9648,-2.9614,-2.9697,-2.973,-2.9673,-2.9715,-2.9718,-2.9706,-2.9734,-2.972,-2.9751,-2.9696,-2.9702,-2.9739,-2.9727,-2.9795,-2.9716,-2.9763,-2.9765,-2.9767,-2.9938,-2.9974,-3.01,-2.9877,-2.988,-2.9882,0,-2.9724,-2.9739,-2.9825,-2.9819,-2.9831,-2.9869,-2.9887,-2.9913,-2.9917,-2.9906,-2.9918,-2.9883,-2.9932,-2.9865,-2.9934,-2.9881,-2.9898,-2.9895,-2.9899,-2.9905,-2.9832,-2.9952,-3.0139,-3.016,-2.9908,-2.9906,-2.9904,0,-2.9853,-2.9894,-2.9952,-2.9957,-2.995,-2.9979,-2.9977,-2.9978,-2.9994,-3.001,-3.0021,-3.0043,-3.0057,-3.0076,-3.0049,-3.0003,-3.0123,-3.0053,-3.0118,-3.0119,-3.0148,-3.0147,-3.0344,-3.0153,-3.0153,-3.0152,-3.0152,0,-2.9995,-3.0052,-3.001,-3.0046,-3.0108,-3.0069,-3.0133,-3.0125,-3.0127,-3.0162,-3.0114,-3.0149,-3.0109,-3.0142,-3.0121,-3.0183,-3.0188,-3.0183,-3.0177,-3.0189,-3.019,-3.0202,-3.0194,-3.0157,-3.0156,-3.0155,-3.0154,0,-3.0151,-3.0125,-3.0185,-3.0174,-3.0172,-3.0219,-3.021,-3.0245,-3.0229,-3.0275,-3.0284,-3.026,-3.0296,-3.027,-3.0305,-3.0291,-3.0375,-3.0355,-3.0373,-3.0369,-3.0437,-3.0432,-3.0651,-3.0679,-3.0467,-3.0469,-3.047,0,-3.0245,-3.0287,-3.0281,-3.0301,-3.0303,-3.0335,-3.0352,-3.0316,-3.0335,-3.0345,-3.0379,-3.041,-3.0434,-3.0493,-3.0481,-3.0509,-3.0492,-3.0566,-3.0496,-3.0508,-3.0498,-3.0497,-3.0503,-3.0582,-3.0584,-3.0586,-3.0588,0,-3.0417,-3.0403,-3.0427,-3.045,-3.0471,-3.0486,-3.0498,-3.0517,-3.0481,-3.0506,-3.0542,-3.056,-3.0596,-3.063,-3.0653,-3.0653,-3.0617,-3.061,-3.0627,-3.0641,-3.0652,-3.0651,-3.0416,-3.0606,-3.0604,-3.0603,-3.0602,-3.0601,-3.0547,-3.0583,-3.0586,-3.0616,-3.0621,-3.0634,-3.0667,-3.0656,-3.0684,-3.0711,-3.0688,-3.0732,-3.0738,-3.0766,-3.0772,-3.0807,-3.0777,-3.08,-3.0807,-3.0814,-3.0826,-3.0644,-3.0811,-3.081,-3.0809,-3.0809,-3.0809,0,-3.072,-3.0719,-3.0747,-3.0766,-3.0791,-3.0752,-3.0763,-3.0788,-3.0827,-3.0835,-3.0859,-3.0902,-3.0935,-3.0925,-3.0955,-3.0986,-3.097,-3.0995,-3.0994,-3.0996,-3.0849,-3.0833,-3.1008,-3.1008,-3.1008,-3.1007,-3.1007,-3.1007,-3.0813,-3.0873,-3.086,-3.0924,-3.0922,-3.0964,-3.0975,-3.0988,-3.0995,-3.1045,-3.1071,-3.1064,-3.1067,-3.1097,-3.1126,-3.1123,-3.1138,-3.117,-3.1161,-3.1025,-3.1006,-3.0987,-3.0972,-3.1173,-3.1173,-3.1305,-3.1307,-3.1308]},{"header":{"parameterUnit":"m.s-1","parameterCategory":1,"la1":30.2991,"la2":30.254,"lo1":-89.0895,"lo2":-89.0444,"dy":0.0017,"dx":0.0017,"nx":28,"ny":28,"refTime":"2023-09-29T03:00:00:Z","depth":0,"parameterNumber":3,"parameterNumberName":"V-component_of_WINDS"},"data":[0,0,0,0,0,0,0,0,0,0,0,0,0,0,0,0,0,0,0,0,0,0,0,0,0,0,0,0,0,0,0,0,0,0,0,0,0,0,0,0,0,0,0,0,0,0,0,0,0,0,0,0,0,0,0,0,0,0,1.5575,1.5575,0,1.5531,1.553,1.553,1.5493,1.5493,1.5492,1.5492,1.5443,1.5442,1.5441,0,0,0,0,0,0,0,0,0,0,0,0,0,1.5625,1.5624,1.5575,1.5575,1.5574,1.5531,1.553,1.553,1.5493,1.5493,1.5492,1.5492,1.5444,1.5443,1.5441,0,0,0,0,0,0,0,0,0,0,0,0,0,1.5594,1.5624,1.5575,1.5551,1.5548,1.5531,1.553,1.553,1.5493,1.5493,1.5492,1.5492,1.5444,1.5443,1.5441,1.5444,0,0,1.5437,1.5436,0,0,0,0,0,0,0,0,1.5596,1.5592,1.5555,1.5552,1.5549,1.5517,1.553,1.5501,1.5493,1.5514,1.5492,1.5491,1.5468,1.5465,1.5457,1.5442,1.544,1.5437,1.5436,1.5435,1.5435,0,0,0,0,0,0,0,1.5598,1.5594,1.5557,1.5554,1.5551,1.5541,1.5536,1.5524,1.5495,1.5512,1.5509,1.5505,1.5466,1.5459,1.5456,1.5439,1.5437,1.5436,1.5435,1.5434,1.5422,1.5422,0,0,0,0,0,0,1.5605,1.5596,1.5559,1.5556,1.5572,1.554,1.5535,1.5528,1.5495,1.5489,1.5505,1.5503,1.5462,1.5458,1.5454,1.5454,1.5435,1.5434,1.5433,1.5421,1.5422,1.5422,0,0,0,0,0,0,1.5606,1.5602,1.5561,1.5575,1.5569,1.554,1.5533,1.5527,1.552,1.549,1.5484,1.5503,1.5461,1.5456,1.5447,1.5452,1.5433,1.5432,1.542,1.5421,1.5422,1.5454,0,0,0,0,0,0,1.5607,1.5602,1.5604,1.5576,1.5569,1.5555,1.5533,1.5527,1.5518,1.5515,1.5486,1.5481,1.546,1.5449,1.5445,1.545,1.5431,1.542,1.5421,1.5422,1.5453,1.5456,1.5459,0,0,0,0,0,1.5609,1.5614,1.5604,1.56,1.557,1.5555,1.5551,1.5528,1.5519,1.5519,1.55,1.5482,1.5452,1.5448,1.5444,1.5448,1.5419,1.5421,1.5422,1.5451,1.5456,1.5459,0,0,0,0,0,0,1.5642,1.561,1.5598,1.5594,1.5578,1.5549,1.5549,1.5534,1.5519,1.5516,1.5488,1.5482,1.5475,1.546,1.5457,1.5448,1.5433,1.5434,1.5457,1.5461,1.5464,1.5467,1.543,0,0,0,0,0,1.5649,1.5641,1.5613,1.5612,1.5605,1.5579,1.5571,1.5555,1.5537,1.5529,1.5509,1.5491,1.5477,1.5469,1.5454,1.5451,1.5443,1.5451,1.5455,1.5457,1.5457,1.5453,1.5456,1.5426,1.5426,1.5426,0,0,1.5663,1.5645,1.5641,1.5618,1.5604,1.5594,1.5573,1.5564,1.5557,1.5527,1.5517,1.5502,1.5479,1.5473,1.5469,1.546,1.5464,1.5459,1.5461,1.546,1.5455,1.5458,1.546,1.5427,1.5427,1.5427,0,0,1.5684,1.567,1.5667,1.5653,1.5631,1.5614,1.5614,1.5587,1.5576,1.5566,1.5543,1.5534,1.5511,1.5496,1.5485,1.55,1.5483,1.5497,1.5513,1.5509,1.5511,1.5513,1.5517,1.5519,1.5497,1.5497,1.5497,0,1.5703,1.569,1.5667,1.566,1.565,1.5624,1.5621,1.5608,1.5583,1.5576,1.5568,1.5539,1.5522,1.551,1.5514,1.5507,1.5504,1.5499,1.5513,1.5515,1.5516,1.5519,1.5521,1.5499,1.5499,1.5498,1.5498,0,1.5714,1.5705,1.5705,1.5682,1.5673,1.5667,1.5643,1.5636,1.5621,1.5604,1.5593,1.5572,1.5553,1.555,1.5535,1.5536,1.5531,1.5519,1.5503,1.5521,1.5523,1.5525,1.5501,1.5501,1.55,1.55,0,0,1.5752,1.5718,1.5718,1.5707,1.5682,1.5674,1.5667,1.565,1.5643,1.5627,1.5619,1.5601,1.5589,1.5577,1.556,1.5557,1.5569,1.5544,1.5543,1.5548,1.5567,1.5576,1.5578,1.5558,1.5558,1.5558,1.5568,0,1.5767,1.5754,1.5734,1.5727,1.5718,1.5694,1.5688,1.5671,1.5655,1.5644,1.5626,1.5614,1.5599,1.5592,1.5588,1.5568,1.5572,1.5567,1.5548,1.5548,1.5553,1.5579,1.5589,1.5599,1.5569,1.557,1.557,0,1.5783,1.5769,1.5761,1.5737,1.5732,1.5727,1.5709,1.5699,1.5679,1.5668,1.5655,1.5637,1.5627,1.5614,1.5599,1.5597,1.5588,1.5577,1.5577,1.5573,1.5559,1.5574,1.5602,1.5604,1.5571,1.5571,1.5571,0,1.581,1.5789,1.5781,1.5773,1.5744,1.5741,1.5729,1.5709,1.5699,1.5683,1.5677,1.566,1.565,1.5636,1.5613,1.5607,1.56,1.5586,1.5589,1.559,1.5588,1.5588,1.5613,1.5585,1.5585,1.5585,1.5585,0,1.5827,1.5823,1.5793,1.5788,1.5783,1.576,1.5754,1.574,1.5722,1.5713,1.5691,1.5683,1.5655,1.5643,1.5625,1.5614,1.561,1.56,1.5595,1.5601,1.5602,1.5593,1.5591,1.5585,1.5585,1.5585,1.5585,0,1.5855,1.5835,1.5826,1.58,1.5793,1.579,1.5767,1.5761,1.5745,1.5734,1.573,1.5703,1.5688,1.5665,1.5642,1.563,1.5622,1.5615,1.5629,1.5626,1.563,1.5629,1.5649,1.565,1.5623,1.5623,1.5624,0,1.5867,1.5864,1.5838,1.5831,1.582,1.5809,1.58,1.5777,1.5767,1.5745,1.5741,1.5725,1.571,1.5687,1.5665,1.5647,1.5638,1.5646,1.5635,1.5641,1.5636,1.5636,1.5635,1.5648,1.5649,1.5649,1.565,0,1.589,1.588,1.5868,1.5853,1.5842,1.5829,1.5814,1.5809,1.5783,1.5773,1.5758,1.5747,1.5725,1.5708,1.5688,1.5673,1.5656,1.5654,1.5653,1.5658,1.5666,1.566,1.5635,1.5653,1.5652,1.5652,1.5652,1.5652,1.5909,1.5905,1.5886,1.5873,1.586,1.5846,1.5839,1.5823,1.581,1.5791,1.5778,1.5763,1.5743,1.5714,1.5701,1.5688,1.5681,1.568,1.568,1.568,1.5681,1.567,1.5684,1.5684,1.5684,1.5684,1.5684,0,1.5929,1.5916,1.5905,1.5885,1.5875,1.5862,1.5845,1.5837,1.5825,1.5808,1.5794,1.5776,1.576,1.5738,1.5719,1.5713,1.5705,1.5709,1.5708,1.5705,1.569,1.5691,1.5716,1.5716,1.5716,1.5716,1.5716,1.5716,1.5938,1.593,1.5918,1.5902,1.5889,1.5876,1.5867,1.5854,1.584,1.5822,1.5809,1.5795,1.5775,1.5755,1.5739,1.5733,1.5726,1.5733,1.5724,1.5709,1.5706,1.5703,1.5705,1.5732,1.5732,1.574,1.574,1.574]}]]